{"data":{"norad_id":39020,"epoch":"2026-09-20T03:34:11.186112Z","epoch_age_seconds":52372,"freshness":"FRESH","line1":"1 39020U 12069A   26263.14874058 -.00000048  00000+0  00000+0 0  9999","line2":"2 39020   0.0647 355.5492 0003703 184.8728 302.6803  1.00271190 50465","mean_motion":1.0027119,"eccentricity":0.0003703,"inclination_deg":0.0647,"raan_deg":355.5492,"arg_perigee_deg":184.8728,"mean_anomaly_deg":302.6803,"bstar":0,"rev_number":5046,"period_min":1436.1054256961,"perigee_km":35771.148100103,"apogee_km":35802.375424126,"semimajor_km":42164.898762115,"source":"CELESTRAK","updated_at":"2026-09-20T09:00:35.179209Z"}}